Regional Weather Roundup
Issued by NWS

Home | Current Version | Previous Version | Text Only | Print | Product List | Glossary On
Versions: 1 2 3 4 5 6 7 8 9 10 11 12 13 14 15 16 17 18 19 20 21 22 23 24 25 26 27 28 29 30 31 32 33 34 35 36 37 38 39 40 41 42 43 44 45 46 47 48 49 50
241
ASUS43 KLMK 250510
RWRKY
KENTUCKY REGIONAL WEATHER ROUNDUP
NATIONAL WEATHER SERVICE LOUISVILLE KY
1200 AM EST SAT FEB 25 2017

NOTE "FAIR" INDICATES FEW OR NO CLOUDS BELOW 12,000 FEET
WITH NO SIGNIFICANT WEATHER AND/OR OBSTRUCTIONS TO VISIBILITY.

KYZ001>023-026-027-061>063-070>075-250600-
WESTERN AND SOUTH CENTRAL KENTUCKY

CITY           SKY/WX    TMP DP  RH WIND       PRES   REMARKS
PADUCAH        MOCLDY    50  31  48 W7        29.78R
HENDERSON      MOCLDY    46  36  66 W16G24    29.73S
OWENSBORO      CLOUDY    50  43  76 NW22      29.72R
HOPKINSVILLE   CLEAR     57  39  50 W18G25    29.70R
BOWLING GREEN  CLOUDY    59  43  55 NW15G24   29.70R
GLASGOW        CLOUDY    62  52  68 W10G16    29.65R
$$

KYZ024-025-028>034-038-045-046-053-250600-
NORTH CENTRAL KENTUCKY

CITY           SKY/WX    TMP DP  RH WIND       PRES   REMARKS
LOUISVILLE/SDF MOCLDY    54  36  50 W13       29.65R
LOUISVILLE/LOU CLOUDY    56  37  49 NW17G24   29.65R
FORT KNOX      CLOUDY    51  38  59 W12       29.65R
$$

KYZ035>037-039>044-047>052-055>060-089>105-250600-
NORTHEAST KENTUCKY

CITY           SKY/WX    TMP DP  RH WIND       PRES   REMARKS
LEXINGTON      CLOUDY    60  56  86 W8        29.61S
COVINGTON      CLOUDY    52  41  66 NW13G25   29.62R
FRANKFORT      CLOUDY    56  46  69 NW13G29   29.62R
$$

KYZ054-064>069-076>088-106>120-250600-
SOUTHEAST KENTUCKY

CITY           SKY/WX    TMP DP  RH WIND       PRES   REMARKS
JACKSON        MOCLDY    68  50  52 S10G16    29.62F
LONDON         CLOUDY    68  50  52 S6        29.64R
SOMERSET       TSTM      55  55 100 SW7G13    29.68R
MIDDLESBORO    MOCLDY    68  51  55 SW5       29.68R
MONTICELLO     LGT RAIN  57  55  93 W14       29.69R
$$





USA.gov is the U.S. government's official web portal to all federal, state and local government web resources and services.